[Iaude] MPEC D28: 2024 CJ8 [a=1.22,e=0.32,i=14.8,H=23.2]
    mpec at cfa.harvard.edu 
    mpec at cfa.harvard.edu
       
    Sat Feb 17 01:07:49 EST 2024
    
    
  
M.P.E.C. 2024-D28                             Issued 2024 February 17, 06:06 UT
     The Minor Planet Electronic Circulars contain information on unusual
         minor planets, routine data on comets and natural satellites,
         and occasional editorial announcements.  They are published
    on behalf of Division F of the International Astronomical Union by the
          Minor Planet Center, Smithsonian Astrophysical Observatory,
                          Cambridge, MA 02138, U.S.A.
			  
             Prepared using the Tamkin Foundation Computer Network
                              MPC at CFA.HARVARD.EDU
            URL https://www.minorplanetcenter.net/    ISSN 1523-6714
                                    2024 CJ8                                    
Observations:
     K24C08J*1C2024 02 15.48141213 02 32.968+54 15 56.70         21.14GVED028G96
     K24C08J 1C2024 02 15.48664213 02 33.623+54 16 05.84         21.29GVED028G96
     K24C08J 1C2024 02 15.49187113 02 34.249+54 16 14.95         21.69GVED028G96
     K24C08J 1C2024 02 15.49710513 02 34.904+54 16 23.59         20.98GVED028G96
     K24C08J 1C2024 02 15.54866213 02 41.150+54 17 51.30         21.84GVED028G96
     K24C08J 1C2024 02 15.55090413 02 41.440+54 17 55.70         22.38GVED028G96
     K24C08J KC2024 02 16.39800613 04 50.117+54 43 36.80         21.47GVED028V06
     K24C08J KC2024 02 16.40112813 04 50.502+54 43 42.67         20.99GVED028V06
     K24C08J KC2024 02 16.40424813 04 50.927+54 43 48.79         21.35GVED028V06
     K24C08J KC2024 02 16.40736613 04 51.301+54 43 54.62         21.45GVED028V06
     K24C08J KC2024 02 17.22143013 06 58.943+55 08 54.67         21.64GVED028V06
     K24C08J KC2024 02 17.22386913 06 59.263+55 09 00.40         21.15GVED028V06
     K24C08J KC2024 02 17.22618713 06 59.627+55 09 05.04         21.04GVED028V06
     K24C08J KC2024 02 17.22850713 06 59.983+55 09 09.97         21.74GVED028V06
Observer details:
G96 Mt. Lemmon Survey.  Observers V. F. Carvajal, J. K. Hogan.  Measurers T.
    Beuden, V. F. Carvajal, D. Fay, J. B. Fazekas, D. C. Fuls, A. R. Gibbs, A.
    D. Grauer, H. Groeller, J. K. Hogan, R. A. Kowalski, S. M. Larson, G. J.
    Leonard, D. Rankin, R. L. Seaman, F. C. Shelly, K. W. Wierzchos.  1.5-m
    reflector + 10K CCD.
V06 Catalina Sky Survey-Kuiper.  Observer J. B. Fazekas.  Measurers T. Beuden,
    V. F. Carvajal, D. Fay, J. B. Fazekas, D. C. Fuls, A. R. Gibbs, A. D.
    Grauer, H. Groeller, J. K. Hogan, R. A. Kowalski, S. M. Larson, G. J.
    Leonard, D. Rankin, R. L. Seaman, F. C. Shelly, K. W. Wierzchos.  1.55-m
    reflector + 1K CCD.
Orbital elements:
2024 CJ8                                                 Earth MOID = 0.0436 AU
Epoch 2024 Mar. 31.0 TT = JDT 2460400.5                 MPC                     
M 336.01637              (2000.0)            P               Q                  
n   0.72775564     Peri.  237.68365     -0.50152071     +0.86508546             
a   1.2240871      Node     2.28982     -0.68280290     -0.38854702             
e   0.3229236      Incl.   14.79690     -0.53127881     -0.31726702             
P   1.35           H   23.20          G   0.15           U   9                  
Residuals in seconds of arc
240215 G96  0.3-  0.0     240215 G96  0.2+  0.3+    240217 V06  0.2+  0.4-
240215 G96  0.0   0.1+    240216 V06  0.1-  0.0     240217 V06  0.2-  0.2+
240215 G96  0.0   0.1+    240216 V06  0.2-  0.1-    240217 V06  0.1-  0.0
240215 G96  0.3+  0.3-    240216 V06  0.2+  0.1+    240217 V06  0.0   0.1+
240215 G96  0.1+  0.3-    240216 V06  0.1+  0.0
Ephemeris:
2024 CJ8                 a,e,i = 1.22, 0.32, 15                  q = 0.8288
Date    TT    R. A. (2000) Decl.     Delta      r    Elong.  Phase     V
2024 01 18    12 04 15.0 +44 39 19   0.4123  1.2623   124.2    40.2    23.4
...
2024 02 02    12 34 08.8 +48 50 09   0.2987  1.1871   126.4    41.9    22.6
...
2024 02 10    12 50 19.9 +51 47 25   0.2422  1.1454   125.8    44.3    22.1
...
2024 02 16    13 03 49.5 +54 31 12   0.2014  1.1137   124.3    47.1    21.7
2024 02 17    13 06 20.1 +55 02 03   0.1948  1.1084   123.9    47.7    21.7
2024 02 18    13 08 57.7 +55 34 10   0.1881  1.1031   123.5    48.4    21.6
...
2024 02 24    13 28 42.7 +59 21 49   0.1489  1.0713   119.8    53.3    21.2
...
2024 03 03    14 28 02.0 +67 07 18   0.09872 1.0293   110.0    64.9    20.5
...
2024 03 18    23 03 04.9 +23 00 14   0.04604 0.9544    26.7   152.1    25.3
A. U. Tomatic                (C) Copyright 2024 MPC           M.P.E.C. 2024-D28
    
    
More information about the Iaude
mailing list